Weather History for Huntingburg, IN

Change the Weather History Date:

Tuesday, January 29, 2013

  Actual Average Record
Temperature  
Mean Temperature 60 °F -  
Max Temperature 66 °F 39 °F 68 °F (2002)
Min Temperature 53 °F 25 °F 1 °F (2014)
Degree Days  
Heating Degree Days 6    
Growing Degree Days 10 (Base 50)    
Moisture  
Dew Point 54 °F    
Average Humidity 82    
Maximum Humidity 88    
Minimum Humidity 73    
Precipitation  
Precipitation 0.00 in - - ()
Sea Level Pressure  
Sea Level Pressure 29.86 in    
Wind  
Wind Speed 14 mph (South)    
Max Wind Speed 28 mph    
Max Gust Speed 39 mph    
Visibility 10 miles    
Events      
Averages and records for this station are not official NWS values.
T = Trace of Precipitation, MM = Missing Value Source: NWS Daily Summary

Daily Weather History Graph

Daily Weather History Graph

Search for Another Location

Airport:

Trip Planner

Search our weather history database for the weather conditions in past years. The results will help you decide how hot, cold, wet, or windy it might be!

Date:

Astronomy

Jan. 29, 2013 Rise Set
Actual Time 7:55 AM EST 6:07 PM EST
Civil Twilight 7:26 AM EST 6:35 PM EST
Nautical Twilight 6:55 AM EST 7:07 PM EST
Astronomical Twilight 6:24 AM EST 7:38 PM EST
Moon 8:59 PM EST (1/29) 8:54 AM EST (1/29)
Length of Visible Light 11h 08m
Length of Day
10h 12m
Waning Gibbous, 94% of the Moon is Illuminated
Jan 29
Waning Gibbous
Feb 3
Last Quarter
Feb 10
New
Feb 17
First Quarter
Feb 25
Full

Hourly Weather History & Observations

Time (EST) Temp. Dew Point Humidity Pressure Visibility Wind Dir Wind Speed Gust Speed Precip Events Conditions
12:15 AM 55.4 °F 51.8 °F 88% 30.05 in 10.0 mi South 10.4 mph 16.1 mph N/A   Scattered Clouds
12:35 AM 55.4 °F 50.0 °F 82% 30.05 in 10.0 mi South 12.7 mph - N/A   Clear
12:56 AM 55.4 °F 50.0 °F 82% 30.05 in 10.0 mi South 16.1 mph - N/A   Clear
1:15 AM 55.4 °F 50.0 °F 82% 30.05 in 10.0 mi South 15.0 mph - N/A   Clear
1:35 AM 55.4 °F 48.2 °F 77% 30.04 in 10.0 mi South 13.8 mph - N/A   Clear
1:55 AM 55.4 °F 48.2 °F 77% 30.04 in 10.0 mi South 13.8 mph - N/A   Partly Cloudy
2:15 AM 53.6 °F 48.2 °F 82% 30.04 in 10.0 mi South 12.7 mph - N/A   Clear
2:35 AM 55.4 °F 50.0 °F 82% 30.02 in 10.0 mi South 15.0 mph 20.7 mph N/A   Clear
2:55 AM 53.6 °F 48.2 °F 82% 30.01 in 10.0 mi South 17.3 mph - N/A   Clear
3:15 AM 53.6 °F 48.2 °F 82% 30.00 in 10.0 mi South 16.1 mph 20.7 mph N/A   Clear
3:35 AM 53.6 °F 48.2 °F 82% 30.00 in 10.0 mi South 12.7 mph - N/A   Clear
3:55 AM 53.6 °F 48.2 °F 82% 30.00 in 10.0 mi South 9.2 mph - N/A   Mostly Cloudy
4:15 AM 53.6 °F 48.2 °F 82% 29.99 in 10.0 mi South 9.2 mph - N/A   Scattered Clouds
4:35 AM 53.6 °F 48.2 °F 82% 29.98 in 10.0 mi South 12.7 mph - N/A   Partly Cloudy
4:55 AM 53.6 °F 48.2 °F 82% 29.97 in 10.0 mi South 15.0 mph - N/A   Clear
5:15 AM 53.6 °F 48.2 °F 82% 29.98 in 10.0 mi South 11.5 mph - N/A   Mostly Cloudy
5:35 AM 53.6 °F 48.2 °F 82% 29.98 in 10.0 mi South 9.2 mph - N/A   Mostly Cloudy
5:55 AM 53.6 °F 50.0 °F 88% 29.99 in 10.0 mi South 9.2 mph - N/A   Scattered Clouds
6:15 AM 53.6 °F 50.0 °F 88% 29.99 in 10.0 mi South 9.2 mph - N/A   Overcast
6:35 AM 53.6 °F 50.0 °F 88% 29.98 in 10.0 mi South 9.2 mph - N/A   Overcast
6:55 AM 55.4 °F 50.0 °F 82% 29.98 in 10.0 mi South 9.2 mph - N/A   Mostly Cloudy
7:15 AM 55.4 °F 51.8 °F 88% 29.98 in 10.0 mi South 8.1 mph - N/A   Mostly Cloudy
7:35 AM 55.4 °F 51.8 °F 88% 29.98 in 10.0 mi South 10.4 mph - N/A   Overcast
7:55 AM 55.4 °F 51.8 °F 88% 29.97 in 10.0 mi South 10.4 mph - N/A   Overcast
8:15 AM 55.4 °F 51.8 °F 88% 29.97 in 10.0 mi South 12.7 mph - N/A   Overcast
8:35 AM 55.4 °F 51.8 °F 88% 29.97 in 9.0 mi South 12.7 mph - N/A   Scattered Clouds
8:55 AM 57.2 °F 53.6 °F 88% 29.97 in 9.0 mi South 15.0 mph 23.0 mph N/A   Mostly Cloudy
9:15 AM 57.2 °F 53.6 °F 88% 29.96 in 8.0 mi South 17.3 mph 24.2 mph N/A   Overcast
9:35 AM 57.2 °F 53.6 °F 88% 29.95 in 8.0 mi South 16.1 mph 24.2 mph N/A   Overcast
10:15 AM 57.2 °F 53.6 °F 88% 29.94 in 8.0 mi South 17.3 mph 20.7 mph N/A   Overcast
10:35 AM 57.2 °F 53.6 °F 88% 29.94 in 8.0 mi South 16.1 mph - N/A   Overcast
10:55 AM 57.2 °F 53.6 °F 88% 29.94 in 8.0 mi South 15.0 mph - N/A   Overcast
11:15 AM 59.0 °F 55.4 °F 88% 29.94 in 8.0 mi South 19.6 mph 31.1 mph N/A   Overcast
11:35 AM 60.8 °F 55.4 °F 82% 29.93 in 10.0 mi South 19.6 mph 27.6 mph N/A   Overcast
11:55 AM 60.8 °F 55.4 °F 82% 29.92 in 10.0 mi South 20.7 mph 29.9 mph N/A   Overcast
12:15 PM 62.6 °F 55.4 °F 77% 29.92 in 10.0 mi South 21.9 mph - N/A   Overcast
12:35 PM 62.6 °F 55.4 °F 77% 29.90 in 10.0 mi South 17.3 mph 26.5 mph N/A   Overcast
12:55 PM 60.8 °F 55.4 °F 82% 29.89 in 10.0 mi South 16.1 mph - N/A   Overcast
1:15 PM 60.8 °F 55.4 °F 82% 29.87 in 10.0 mi South 18.4 mph 24.2 mph N/A   Overcast
1:35 PM 60.8 °F 55.4 °F 82% 29.85 in 10.0 mi South 15.0 mph 24.2 mph N/A   Overcast
1:55 PM 62.6 °F 55.4 °F 77% 29.84 in 10.0 mi South 17.3 mph - N/A   Overcast
2:15 PM 62.6 °F 55.4 °F 77% 29.82 in 10.0 mi South 19.6 mph - N/A   Overcast
2:35 PM 62.6 °F 55.4 °F 77% 29.81 in 10.0 mi South 11.5 mph 17.3 mph N/A   Overcast
2:55 PM 62.6 °F 55.4 °F 77% 29.80 in 10.0 mi SSE 11.5 mph 19.6 mph N/A   Overcast
3:15 PM 62.6 °F 55.4 °F 77% 29.80 in 10.0 mi SSE 12.7 mph 19.6 mph N/A   Overcast
3:35 PM 62.6 °F 55.4 °F 77% 29.79 in 10.0 mi South 13.8 mph 20.7 mph N/A   Overcast
3:55 PM 62.6 °F 55.4 °F 77% 29.78 in 10.0 mi South 16.1 mph - N/A   Overcast
4:15 PM 62.6 °F 55.4 °F 77% 29.77 in 10.0 mi South 17.3 mph 24.2 mph N/A   Overcast
4:35 PM 62.6 °F 55.4 °F 77% 29.76 in 10.0 mi South 12.7 mph 20.7 mph N/A   Overcast
4:55 PM 62.6 °F 55.4 °F 77% 29.75 in 10.0 mi South 11.5 mph - N/A   Overcast
5:15 PM 62.6 °F 57.2 °F 82% 29.74 in 10.0 mi South 10.4 mph 18.4 mph N/A   Overcast
5:35 PM 62.6 °F 57.2 °F 82% 29.74 in 10.0 mi South 15.0 mph 21.9 mph N/A   Overcast
5:55 PM 62.6 °F 57.2 °F 82% 29.73 in 10.0 mi South 15.0 mph 23.0 mph N/A   Overcast
6:35 PM 62.6 °F 57.2 °F 82% 29.72 in 10.0 mi South 15.0 mph 21.9 mph N/A   Overcast
7:15 PM 62.6 °F 57.2 °F 82% 29.72 in 10.0 mi South 11.5 mph 19.6 mph N/A   Mostly Cloudy
7:35 PM 62.6 °F 55.4 °F 77% 29.70 in 10.0 mi South 13.8 mph 18.4 mph N/A   Scattered Clouds
7:55 PM 62.6 °F 57.2 °F 82% 29.69 in 10.0 mi SSE 13.8 mph 23.0 mph N/A   Partly Cloudy
8:15 PM 64.4 °F 57.2 °F 77% 29.69 in 10.0 mi South 18.4 mph 26.5 mph N/A   Clear
8:35 PM 64.4 °F 57.2 °F 77% 29.67 in 10.0 mi South 19.6 mph 29.9 mph N/A   Partly Cloudy
8:56 PM 64.4 °F 57.2 °F 77% 29.65 in 10.0 mi SSE 17.3 mph 28.8 mph N/A   Partly Cloudy
9:15 PM 64.4 °F 57.2 °F 77% 29.62 in 10.0 mi SSE 15.0 mph 28.8 mph N/A   Partly Cloudy
9:55 PM 64.4 °F 57.2 °F 77% 29.57 in 10.0 mi SSE 21.9 mph 34.5 mph N/A   Partly Cloudy
10:15 PM 66.2 °F 57.2 °F 73% 29.56 in 10.0 mi South 27.6 mph 39.1 mph N/A   Scattered Clouds
10:35 PM 66.2 °F 59.0 °F 78% 29.55 in 10.0 mi South 20.7 mph 36.8 mph N/A   Scattered Clouds
10:55 PM 66.2 °F 59.0 °F 78% 29.53 in 10.0 mi SSE 19.6 mph 36.8 mph N/A   Partly Cloudy
11:15 PM 66.2 °F 59.0 °F 78% 29.52 in 10.0 mi South 19.6 mph 34.5 mph N/A   Partly Cloudy
11:35 PM 66.2 °F 59.0 °F 78% 29.51 in 10.0 mi South 19.6 mph 35.7 mph N/A   Mostly Cloudy
11:55 PM 66.2 °F 59.0 °F 78% 29.50 in 10.0 mi South 25.3 mph 34.5 mph N/A   Scattered Clouds